Zurück zum Katalog

DELTA 1 R/B

AktivHEO
NORAD 4298·ROCKET BODY·🇺🇸 United States

Gestartet Jan 15, 1970 von Cape Canaveral Space Force Station

Loading…

Nächste Überflüge (nächste 24 Stunden)

TLE

AktuellSource: Space-Track

Epoche: Sep 14, 2026, 08:55 UTC

1 04298U 70003B   26257.37177405  .00004105  00000-0  21658-2 0  9993
2 04298  28.1144   5.5922 6497677 147.1957 279.0721  3.28311859566733

Verfolge DELTA 1 R/B in Echtzeit mit AllMySat

Download on the App Store